Regional Weather Roundup
Issued by NWS

Home | Current Version | Previous Version | Graphics & Text | Print | Product List | Glossary On
Versions: 1 2 3 4 5 6 7 8 9 10 11 12 13 14 15 16 17 18 19 20 21 22 23 24 25 26 27 28 29 30 31 32 33 34 35 36 37 38 39 40 41 42 43 44 45 46 47 48 49 50
000
ASUS43 KBIS 031510
RWRND

NORTH DAKOTA REGIONAL WEATHER ROUNDUP
NATIONAL WEATHER SERVICE BISMARCK ND
1000 AM CDT FRI JUL 03 2015

NOTE: "FAIR" INDICATES FEW OR NO CLOUDS BELOW 12,000 FEET WITH NO
SIGNIFICANT WEATHER AND/OR OBSTRUCTIONS TO VISIBILITY.


NDZ001>003-009>011-017-031600-
NORTHWEST NORTH DAKOTA

CITY           SKY/WX    TMP DP  RH WIND       PRES   REMARKS
WILLISTON      SUNNY     71  62  73 N3        30.01S HAZE
MINOT          CLOUDY    70  63  78 CALM      29.99F HAZE
MINOT AFB      SUNNY     72  72 100 VRB2      29.99S FOG
$$

NDZ018>021-031>035-040>046-031600-
SOUTHWEST NORTH DAKOTA

CITY           SKY/WX    TMP DP  RH WIND       PRES   REMARKS
BISMARCK       PTSUNNY   72  64  76 CALM      30.01S HAZE
DICKINSON      SUNNY     74  62  66 VRB3      30.03R HAZE
GARRISON         N/A     68  65  90 CALM      30.01S
HETTINGER ARPT SUNNY     74  62  66 CALM      30.06S
$$

NDZ004>008-012>016-024-026-027-054-031600-
NORTHEAST NORTH DAKOTA

CITY           SKY/WX    TMP DP  RH WIND       PRES   REMARKS
GRAND FORKS    HAZE      73  67  81 W3        29.93S VSB 1
GRND FRKS AFB  MOSUNNY   73  66  79 NW3       29.94S HAZE
DEVILS LAKE    MOSUNNY   70  61  73 NW5       29.97S
$$

NDZ022-023-025-028>030-036>039-047>053-031600-
SOUTHEAST NORTH DAKOTA

CITY           SKY/WX    TMP DP  RH WIND       PRES   REMARKS
FARGO          PTSUNNY   72  65  78 CALM      29.94S HAZE
JAMESTOWN      PTSUNNY   70  66  87 NW6       29.97S FOG
$$



USA.gov is the U.S. government's official web portal to all federal, state and local government web resources and services.